Left ArrowRight Arrow

31.31129, -92.44514

Hourly Observations for June 13, 2024

Temp ( °F °C ) Dew Point ( °F °C ) Humidity (%) Winds ( mph kmh ) Pressure ( in mb ) Visibility ( mi km ) Precip ( " mm )
12:53 am 00:53 Clear 69 20.6 66 18.9 90 90 Calm 29.93 1014 10 16 0.00 0.00
1:53 am 01:53 Clear 68 20 66 18.9 93 93 Calm 29.92 1013 9 14 0.00 0.00
2:53 am 02:53 Clear 67 19.4 65 18.3 93 93 Calm 29.91 1013 10 16 0.00 0.00
3:53 am 03:53 Clear 66 18.9 64 17.8 93 93 Calm 29.92 1013 9 14 0.00 0.00
4:53 am 04:53 Clear 64 17.8 63 17.2 96 96 Calm 29.93 1014 7 11 0.00 0.00
5:53 am 05:53 Clear 64 17.8 63 17.2 96 96 Calm 29.94 1014 7 11 0.00 0.00
6:53 am 06:53 Sunny 67 19.4 65 18.3 93 93 Calm 29.96 1015 7 11 0.00 0.00
7:53 am 07:53 Sunny 71 21.7 66 18.9 84 84 Calm 29.97 1015 9 14 0.00 0.00
8:53 am 08:53 Sunny 78 25.6 63 17.2 60 60 ENE 3 6 29.98 1015 10 16 0.00 0.00
9:53 am 09:53 Sunny 82 27.8 61 16.1 49 49 ENE 5 7 29.98 1015 10 16 0.00 0.00
10:53 am 10:53 Sunny 84 28.9 59 15 43 43 undefined N/A 29.99 1016 10 16 0.00 0.00
11:53 am 11:53 Sunny 87 30.6 58 14.4 37 37 VRB 5 7 29.98 1015 10 16 0.00 0.00
12:53 pm 12:53 Sunny 87 30.6 61 16.1 42 42 NNW 3 6 29.97 1015 10 16 0.00 0.00
1:53 pm 13:53 Sunny 89 31.7 61 16.1 39 39 E 6 9 29.96 1014 10 16 0.00 0.00
2:53 pm 14:53 Sunny 91 32.8 60 15.6 36 36 ENE 5 7 29.94 1014 10 16 0.00 0.00
3:53 pm 15:53 Sunny 92 33.3 58 14.4 32 32 NE 6 9 29.93 1013 10 16 0.00 0.00
4:53 pm 16:53 Sunny 90 32.2 58 14.4 34 34 E 7 11 29.92 1013 10 16 0.00 0.00
5:53 pm 17:53 Sunny 90 32.2 58 14.4 34 34 NE 7 11 29.91 1013 10 16 0.00 0.00
6:53 pm 18:53 Sunny 88 31.1 57 13.9 35 35 NNE 5 7 29.91 1013 10 16 0.00 0.00
7:53 pm 19:53 Sunny 84 28.9 63 17.2 49 49 NE 5 7 29.91 1013 10 16 0.00 0.00
8:53 pm 20:53 Clear 79 26.1 64 17.8 60 60 ENE 5 7 29.92 1013 10 16 0.00 0.00
9:53 pm 21:53 Clear 76 24.4 65 18.3 69 69 NE 3 6 29.92 1013 10 16 0.00 0.00
10:53 pm 22:53 Clear 71 21.7 65 18.3 81 81 Calm 29.93 1014 10 16 0.00 0.00
11:53 pm 23:53 Clear 71 21.7 66 18.9 84 84 Calm 29.93 1014 10 16 0.00 0.00

Powered by Vaisala Xweather